Regional Weather Roundup
Issued by NWS

Home | Current Version | Previous Version | Graphics & Text | Print | Product List | Glossary On
Versions: 1 2 3 4 5 6 7 8 9 10 11 12 13 14 15 16 17 18 19 20 21 22 23 24 25 26 27 28 29 30 31 32 33 34 35 36 37 38 39 40 41 42 43 44 45 46 47 48 49 50
000
ASUS43 KLMK 182102
RWRKY
KENTUCKY REGIONAL WEATHER ROUNDUP
NATIONAL WEATHER SERVICE LOUISVILLE KY
500 PM EDT FRI APR 18 2014

NOTE "FAIR" INDICATES FEW OR NO CLOUDS BELOW 12,000 FEET
WITH NO SIGNIFICANT WEATHER AND/OR OBSTRUCTIONS TO VISIBILITY.

KYZ001>023-026-027-061>063-070>075-182200-
WESTERN AND SOUTH CENTRAL KENTUCKY

CITY           SKY/WX    TMP DP  RH WIND       PRES   REMARKS
PADUCAH        SUNNY     75  40  28 VRB6      30.19F
HENDERSON      SUNNY     70  43  37 NE5       30.20F
OWENSBORO      MOSUNNY   71  37  28 CALM      30.22F
HOPKINSVILLE   MOSUNNY   70  45  40 CALM      30.19F
BOWLING GREEN  CLOUDY    70  44  39 VRB6      30.21F
GLASGOW        NOT AVBL
$$

KYZ024-025-028>034-038-045-046-053-182200-
NORTH CENTRAL KENTUCKY

CITY           SKY/WX    TMP DP  RH WIND       PRES   REMARKS
LOUISVILLE/SDF CLOUDY    72  38  29 N6        30.21F
LOUISVILLE/LOU PTSUNNY   73  38  27 CALM      30.22F
FORT KNOX      CLOUDY    69  37  30 S3        30.21F
$$

KYZ035>037-039>044-047>052-055>060-089>105-182200-
NORTHEAST KENTUCKY

CITY           SKY/WX    TMP DP  RH WIND       PRES   REMARKS
LEXINGTON      PTSUNNY   70  40  33 NW7       30.24F
COVINGTON      PTSUNNY   70  35  27 CALM      30.23F
FRANKFORT      CLOUDY    69  36  29 CALM      30.22F
$$

KYZ054-064>069-076>088-106>120-182200-
SOUTHEAST KENTUCKY

CITY           SKY/WX    TMP DP  RH WIND       PRES   REMARKS
JACKSON        PTSUNNY   70  36  28 VRB5      30.22F
LONDON         CLOUDY    70  39  32 NE6       30.22F
SOMERSET       NOT AVBL
MIDDLESBORO    NOT AVBL
MONTICELLO     CLOUDY    68  45  43 VRB6      30.23F
$$




USA.gov is the U.S. government's official web portal to all federal, state and local government web resources and services.